Almeria, Spain

10:44 AM CET en Diciembre 17, 2018 (GMT +0100)
Almeria

Tiempo Historia de LEAM - Octubre, 2018

Change the Weather History Date:

Jueves, Octubre 11, 2018

  Actual Average Record
Temperature  
Temperatura media 72 ° F -  
Temperatura máxima 77 ° F 69 ° F 82 ° F (2011)
Temperatura mínima 66 ° F 57 ° F 55 ° F (1998)
Cooling Degree Days 6    
Growing Degree Days 22 (Base 50)    
Moisture  
Punto de rocío 64 ° F    
Average Humidity 77    
Maximum Humidity 88    
Minimum Humidity 59    
Precipitación  
Precipitación 0.00 pul 0.04 pul - ()
Presión al nivel del mar  
Presión al nivel del mar 29.94 pul    
Viento  
Velocidad del viento 6 mph ()    
Velocidad máxima del viento 15 mph    
Max Gust Speed -    
Visibilidad 6.9 Millas    
Eventos      
Averages and records for this station are not official NWS values.
T = Trace of Precipitation, MM = Missing Value Source: Averaged Metar Reports

Daily Weather History Graph

Daily Weather History Graph

Search for Another Location

Airport or City:

Astronomía

Oct. 11, 2018 Salida Puesta
Hora real 8:13 AM CEST 7:38 PM CEST
Crepúsculo civil 7:47 AM CEST 8:04 PM CEST
Crepúsculo náutico 7:17 AM CEST 8:34 PM CEST
Crepúsculo astronómico 6:47 AM CEST 9:04 PM CEST
Luna 10:27 AM CEST (10/11) 9:29 PM CEST (10/11)
Horas de luz 12h 17m
Horas de luz
11h 25m
Creciente, 6% of the Moon is Illuminated
Oct 11
Creciente
Oct 16
Cuarto creciente
Oct 24
Luna llena
Oct 31
Cuarto menguante
Nov 7
Nueva

Hourly Weather History & Observations

Hora (CEST) Temp. Punto de rocío Humedad Presión Visibilidad Wind Dir Velocidad del viento Velocidad de ráfagas Precip Eventos Condiciones
12:00 AM 69 ° F 65 ° F 83% 29.87 pul - Norte 5.8 mph - -  
12:00 AM 69.8 ° F 64.4 ° F 83% 29.86 pul 6.2 mi Norte 4.6 mph - N/A   Desconocido
12:30 AM 69.8 ° F 62.6 ° F 78% 29.86 pul 6.2 mi NNE 4.6 mph - N/A   Desconocido
1:00 AM 68.0 ° F 62.6 ° F 83% 29.89 pul 6.2 mi Norte 3.5 mph - N/A   Nubes dispersas
1:30 AM 69.8 ° F 64.4 ° F 83% 29.86 pul 6.2 mi NNE 4.6 mph - N/A   Muy nublado
2:00 AM 70 ° F 66 ° F 83% 29.88 pul - NNE 2.3 mph - -  
2:00 AM 69.8 ° F 64.4 ° F 83% 29.89 pul 6.2 mi NNE 2.3 mph - N/A   Nublado
2:30 AM 71.6 ° F 64.4 ° F 78% 29.89 pul 6.2 mi NNO 2.3 mph - N/A   Nublado
3:00 AM 70 ° F 67 ° F 85% 29.88 pul - Sin viento Sin viento - -  
3:00 AM 69.8 ° F 66.2 ° F 88% 29.89 pul 6.2 mi Sin viento Sin viento - N/A   Muy nublado
3:30 AM 69.8 ° F 66.2 ° F 88% 29.86 pul 6.2 mi Variable 1.2 mph - N/A   Muy nublado
4:00 AM 69 ° F 65 ° F 83% 29.88 pul - NO 5.8 mph - -  
4:00 AM 68.0 ° F 62.6 ° F 83% 29.86 pul 6.2 mi NO 5.8 mph - N/A   Nubes dispersas
4:30 AM 68.0 ° F 62.6 ° F 83% 29.86 pul 6.2 mi NNO 8.1 mph - N/A   Parcialmente nublado
5:00 AM 68 ° F 63 ° F 80% 29.86 pul 19 mi NO 8.1 mph - -   Nubes dispersas
5:00 AM 68.0 ° F 62.6 ° F 83% 29.86 pul - NO 6.9 mph - N/A   Despejado
5:30 AM 68.0 ° F 60.8 ° F 78% 29.86 pul 6.2 mi NO 9.2 mph - N/A   Parcialmente nublado
6:00 AM 67 ° F 62 ° F 79% 29.87 pul - NNO 8.1 mph - -  
6:00 AM 68.0 ° F 60.8 ° F 78% 29.86 pul 6.2 mi NNO 8.1 mph - N/A   Parcialmente nublado
6:30 AM 68.0 ° F 60.8 ° F 78% 29.86 pul 6.2 mi NNO 8.1 mph - N/A   Parcialmente nublado
7:00 AM 68 ° F 61 ° F 73% 29.88 pul - NNO 8.1 mph - -  
7:00 AM 68.0 ° F 60.8 ° F 78% 29.89 pul 6.2 mi NNO 8.1 mph - N/A   Nubes dispersas
7:30 AM 68.0 ° F 62.6 ° F 83% 29.89 pul 6.2 mi NNE 4.6 mph - N/A   Nubes dispersas
8:00 AM 66.2 ° F 60.8 ° F 83% 29.89 pul 6.2 mi Norte 5.8 mph - N/A   Nubes dispersas
8:30 AM 66.2 ° F 60.8 ° F 83% 29.89 pul 6.2 mi NNO 6.9 mph - N/A   Nubes dispersas
9:00 AM 68 ° F 62 ° F 74% 29.91 pul - NO 10.4 mph - -  
9:00 AM 68.0 ° F 60.8 ° F 78% 29.89 pul 6.2 mi NNO 9.2 mph - N/A   Parcialmente nublado
9:30 AM 69.8 ° F 60.8 ° F 73% 29.92 pul 6.2 mi NO 10.4 mph - N/A   Parcialmente nublado
10:00 AM 70 ° F 62 ° F 68% 29.94 pul - NNO 9.2 mph - -  
10:00 AM 69.8 ° F 60.8 ° F 73% 29.92 pul 6.2 mi NO 9.2 mph - N/A   Parcialmente nublado
10:30 AM 71.6 ° F 60.8 ° F 69% 29.95 pul 6.2 mi NNO 6.9 mph - N/A   Parcialmente nublado
11:00 AM 73.4 ° F 60.8 ° F 65% 29.95 pul 6.2 mi Norte 4.6 mph - N/A   Parcialmente nublado
11:30 AM 75.2 ° F 64.4 ° F 69% 29.95 pul 6.2 mi SE 4.6 mph - N/A   Parcialmente nublado
12:00 PM 76 ° F 66 ° F 64% 29.96 pul - SSE 8.1 mph - -  
12:00 PM 75.2 ° F 64.4 ° F 69% 29.95 pul 6.2 mi SE 8.1 mph - N/A   Parcialmente nublado
12:30 PM 75.2 ° F 62.6 ° F 65% 29.95 pul 6.2 mi SE 6.9 mph - N/A   Parcialmente nublado
1:00 PM 76 ° F 65 ° F 61% 29.98 pul - Sur 5.8 mph - -  
1:00 PM 75.2 ° F 64.4 ° F 69% 29.98 pul 6.2 mi Sur 5.8 mph - N/A   Parcialmente nublado
1:30 PM 75.2 ° F 66.2 ° F 73% 29.98 pul 6.2 mi SSO 9.2 mph - N/A   Parcialmente nublado
2:00 PM 75 ° F 67 ° F 71% 29.99 pul 16 mi SSO 8.1 mph - -   Nubes dispersas
2:00 PM 75.2 ° F 66.2 ° F 73% 29.98 pul 6.2 mi SSO 6.9 mph - N/A   Nubes dispersas
2:30 PM 75.2 ° F 66.2 ° F 73% 29.98 pul 6.2 mi SSO 9.2 mph - N/A   Nubes dispersas
3:00 PM 74 ° F 67 ° F 74% 29.98 pul - SSO 9.2 mph - -  
3:00 PM 73.4 ° F 66.2 ° F 78% 29.98 pul 6.2 mi SSO 8.1 mph - N/A   Nubes dispersas
3:30 PM 73.4 ° F 68.0 ° F 83% 29.98 pul 6.2 mi SSO 6.9 mph - N/A   Nubes dispersas
4:00 PM 74 ° F 68 ° F 77% 29.97 pul - SSO 9.2 mph - -  
4:00 PM 73.4 ° F 68.0 ° F 83% 29.98 pul 6.2 mi SSO 8.1 mph - N/A   Nubes dispersas
4:30 PM 75.2 ° F 66.2 ° F 73% 29.95 pul 6.2 mi SO 11.5 mph - N/A   Nubes dispersas
5:00 PM 77 ° F 65 ° F 59% 29.97 pul 19 mi SO 10.4 mph - -   Nubes dispersas
5:00 PM 77.0 ° F 64.4 ° F 65% 29.95 pul 6.2 mi SO 10.4 mph - N/A   Nubes dispersas
5:30 PM 75.2 ° F 66.2 ° F 73% 29.95 pul 6.2 mi SSO 9.2 mph - N/A   Parcialmente nublado
6:00 PM 76 ° F 68 ° F 70% 29.97 pul - SSO 11.5 mph - -  
6:00 PM 75.2 ° F 66.2 ° F 73% 29.98 pul 6.2 mi SSO 10.4 mph - N/A   Parcialmente nublado
6:30 PM 73.4 ° F 68.0 ° F 83% 29.98 pul 6.2 mi SO 15.0 mph - N/A   Parcialmente nublado
7:00 PM 74 ° F 67 ° F 73% 29.99 pul - SO 13.8 mph - -  
7:00 PM 73.4 ° F 66.2 ° F 78% 29.98 pul 6.2 mi SO 12.7 mph - N/A   Parcialmente nublado
7:30 PM 73.4 ° F 64.4 ° F 73% 29.98 pul 6.2 mi SO 8.1 mph - N/A   Parcialmente nublado
8:00 PM 71.6 ° F 66.2 ° F 83% 29.98 pul 6.2 mi Sur 5.8 mph - N/A   Parcialmente nublado
8:30 PM 71.6 ° F 66.2 ° F 83% 30.01 pul 6.2 mi SSO 5.8 mph - N/A   Parcialmente nublado
9:00 PM 71.6 ° F 64.4 ° F 78% 30.04 pul 6.2 mi OSO 6.9 mph - N/A   Parcialmente nublado
9:30 PM 71.6 ° F 64.4 ° F 78% 30.04 pul 6.2 mi Variable 2.3 mph - N/A   Parcialmente nublado
10:00 PM 70 ° F 66 ° F 83% 30.04 pul - NNE 4.6 mph - -  
10:00 PM 69.8 ° F 64.4 ° F 83% 30.04 pul 6.2 mi NE 3.5 mph - N/A   Parcialmente nublado
10:30 PM 69.8 ° F 64.4 ° F 83% 30.04 pul 6.2 mi NNE 5.8 mph - N/A   Parcialmente nublado
11:00 PM 69.8 ° F 64.4 ° F 83% 30.06 pul 6.2 mi NNE 4.6 mph - N/A   Parcialmente nublado
11:30 PM 69.8 ° F 64.4 ° F 83% 30.06 pul 6.2 mi Norte 4.6 mph - N/A   Desconocido